Location: Az?znagar
(16.8373°N, 80.5091°E)
Time: 10:37:07
(UTC+00:00)

deb Chang Zheng 4 - Pass Details

Date: 04 October 2022
Orbit: 879 x 975 km, 98.9° (Epoch: 01 December)

Event Time Altitude Azimuth Distance (km) Brightness Sun altitude
Exits shadow 13:09:40 14° 102° (ESE) 2,285 ? -11.6°
Maximum altitude 13:12:09 18° 72° (ENE) 2,027 ? -12.2°
Drops below altitude 10° 13:15:52 10° 31° (NNE) 2,541 ? -13.0°
Sets 13:18:58 0° 13° (NNE) 3,473 ? -13.8°
